Notices

What's New in latest Release from April 7th, 2021:

- Updated Glossary, including Speed of Maximum Gust, and Total Hourly Precipitation

- Updated national and regional climate services offices contacts and prices information

- Addition of station inventory lists for 1981-2010, 1971-2000, and 1961-1990 Normals.

If you haven't already, please take our survey and provide feedback about our website: https://eccc.sondage-survey.ca/f/LanguageSelection.aspx?s=442ca660-fcf1-47c0-95a9-59707d6fd709

Hourly Data Report for April 25, 2019

MIRAMICHI RCS
NEW BRUNSWICK
Current Station Operator: ECCC - MSC

47°00'34.000" N
65°27'54.000" W
33.00 m
8100989
71744
ACQ

Download Data

Hourly Data (April 2019)
Hourly Data Report for April 25, 2019
TIME
LST
Temp Definition
°C
Dew Point Definition
°C
Rel Hum Definition
%
Precip. Amount Definition
mm

Wind Dir Definition
10's deg

Wind Spd Definition
km/h
Visibility Definition
km
Stn Press Definition
kPa
Hmdx Definition


Wind Chill Definition


Weather Definition


00:00 -0.7 -1.6 93 0.2 3 17   100.49   -6 LegendNANA
01:00 -0.7 -1.6 94 0.3 3 12   100.47   -5 LegendNANA
02:00 -0.7 -1.5 94 0.3 3 14   100.40   -5 LegendNANA
03:00 -0.6 -1.4 94 0.2 3 12   100.47   -5 LegendNANA
04:00 -0.6 -1.5 94 0.3 2 13   100.52   -5 LegendNANA
05:00 -0.6 -1.5 94 0.2 2 14   100.56   -5 LegendNANA
06:00 -0.7 -1.6 93 0.0 2 13   100.65   -5 LegendNANA
07:00 -0.6 -1.8 92 0.0 3 19   100.67   -6 LegendNANA
08:00 -0.4 -1.8 90 0.5 3 14   100.76   -5 LegendNANA
09:00 -0.1 -1.4 90 0.8 2 16   100.77   -5 LegendNANA
10:00 0.3 -1.3 89 0.0 2 16   100.84     LegendNANA
11:00 0.8 -1.2 86 0.0 2 16   100.89     LegendNANA
12:00 1.1 -1.1 85 0.0 3 18   100.87     LegendNANA
13:00 1.6 -0.5 86 0.0 2 16   100.92     LegendNANA
14:00 1.9 -0.7 83 0.0 3 18   100.98     LegendNANA
15:00 2.6 -0.5 80 0.0 3 17   100.98     LegendNANA
16:00 2.2 -0.7 81 0.0 3 12   101.01     LegendNANA
17:00 1.5 -0.1 89 0.2 35 8   101.07     LegendNANA
18:00 1.4 -0.8 85 0.0 1 6   101.12     LegendNANA
19:00 1.0 -0.8 88 0.0 1 5   101.16     LegendNANA
20:00 0.5 -1.2 89 0.0 1 3   101.18     LegendNANA
21:00 -0.1 -1.2 92 0.0 5 6   101.21   -2 LegendNANA
22:00 -1.2 -2.1 94 0.0 19 1   101.21   -2 LegendNANA
23:00 -1.2 -1.8 96 0.0 30 2   101.21   -2 LegendNANA

Notes on Data Quality.

Legend

  • E = Estimated
  • M = Missing
  • NA = Not Available*
  • [empty] = Indicates an unobserved value
Date modified: